Location: Unspecified
(0.0000°N, 0.0000°E)
Time: 19:14:19
(UTC+00:00)

Vanguard 1 - Pass Details

Date: 21 November 2019
Orbit: 652 x 3832 km, 34.3° (Epoch: 09 December)

Event Time Altitude Azimuth Distance (km) Brightness Sun altitude
Rises 08:03:27 0° 252° (WSW) 7,718 14.2 32.1°
Reaches altitude 10° 08:09:58 10° 260° (W) 6,355 13.9 33.6°
Maximum altitude 08:25:52 34° 318° (NW) 3,422 12.7 37.2°
Drops below altitude 10° 08:35:38 10° 20° (NNE) 3,895 13.2 39.4°
Sets 08:38:35 0° 31° (NNE) 4,517 13.5 40.1°
